• In Uzbekistan
  • List of Countries
  • For 7 days
  • Water Temperature
  • Satellite Maps
  • Weather Map
  • Weather Widgets
  • user-avatar
    Login

    Hourly Weather Hobart

    Today, 6 December, Tuesday

    Time Temperature Precipitation Wind Pressure Humidity
    00:00 +8°C° 0 mm 2 mps 745 mmHg 85%
    01:00 +9°C° 0 mm 2 mps 745 mmHg 85%
    02:00 +9°C° 0 mm 2 mps 745 mmHg 85%
    03:00 +9°C° 0 mm 2 mps 744 mmHg 85%
    04:00 +9°C° 0 mm 2 mps 744 mmHg 85%
    05:00 +10°C° 0.1 mm 2 mps 744 mmHg 82%
    06:00 +10°C° 0.1 mm 2 mps 744 mmHg 80%
    07:00 +12°C° 0.1 mm 2 mps 744 mmHg 78%
    08:00 +14°C° 0.1 mm 2 mps 744 mmHg 71%
    09:00 +15°C° 0.1 mm 2 mps 744 mmHg 64%
    10:00 +17°C° 0.1 mm 2 mps 744 mmHg 57%
    11:00 +17°C° 0 mm 3 mps 743 mmHg 54%
    12:00 +18°C° 0 mm 4 mps 743 mmHg 50%
    13:00 +18°C° 0 mm 4 mps 743 mmHg 46%
    14:00 +17°C° 0 mm 5 mps 743 mmHg 46%
    15:00 +17°C° 0 mm 5 mps 743 mmHg 46%
    16:00 +17°C° 0 mm 5 mps 743 mmHg 47%
    17:00 +15°C° 0 mm 5 mps 743 mmHg 53%
    18:00 +14°C° 0 mm 4 mps 743 mmHg 59%
    19:00 +13°C° 0 mm 4 mps 744 mmHg 65%
    20:00 +12°C° 0 mm 4 mps 744 mmHg 71%
    21:00 +11°C° 0 mm 4 mps 744 mmHg 77%
    22:00 +10°C° 0 mm 4 mps 745 mmHg 83%
    23:00 +8°C° 0 mm 4 mps 745 mmHg 85%

    Tomorrow, 7 December, Wednesday

    Time Temperature Precipitation Wind Pressure Humidity
    00:00 +8°C° 0 mm 4 mps 744 mmHg 87%
    01:00 +7°C° 0 mm 4 mps 744 mmHg 89%
    02:00 +7°C° 0 mm 4 mps 744 mmHg 89%
    03:00 +7°C° 0 mm 4 mps 744 mmHg 90%
    04:00 +7°C° 0 mm 4 mps 744 mmHg 90%
    05:00 +10°C° 0 mm 4 mps 744 mmHg 83%
    06:00 +12°C° 0 mm 4 mps 744 mmHg 76%
    07:00 +13°C° 0 mm 4 mps 745 mmHg 69%
    08:00 +15°C° 0 mm 4 mps 745 mmHg 64%
    09:00 +17°C° 0 mm 4 mps 745 mmHg 58%
    10:00 +19°C° 0 mm 4 mps 745 mmHg 52%
    11:00 +20°C° 0 mm 3 mps 745 mmHg 48%
    12:00 +21°C° 0 mm 3 mps 744 mmHg 44%
    13:00 +24°C° 0 mm 3 mps 744 mmHg 41%
    14:00 +22°C° 0 mm 3 mps 744 mmHg 43%
    15:00 +22°C° 0 mm 4 mps 743 mmHg 45%
    16:00 +22°C° 0 mm 4 mps 743 mmHg 47%
    17:00 +20°C° 0 mm 3 mps 743 mmHg 54%
    18:00 +19°C° 0 mm 3 mps 742 mmHg 61%
    19:00 +17°C° 0 mm 2 mps 742 mmHg 68%
    20:00 +15°C° 0 mm 2 mps 742 mmHg 75%
    21:00 +13°C° 0 mm 2 mps 741 mmHg 82%
    22:00 +10°C° 0 mm 2 mps 741 mmHg 88%
    23:00 +10°C° 0 mm 3 mps 740 mmHg 87%

    Day after tomorrow, 8 December, Thursday

    Time Temperature Precipitation Wind Pressure Humidity
    00:00 +10°C° 0 mm 3 mps 740 mmHg 85%
    01:00 +10°C° 0 mm 3 mps 739 mmHg 84%
    02:00 +10°C° 0 mm 3 mps 738 mmHg 82%
    03:00 +9°C° 0 mm 3 mps 737 mmHg 81%
    04:00 +9°C° 0 mm 3 mps 737 mmHg 79%
    05:00 +10°C° 0.7 mm 3 mps 736 mmHg 83%
    06:00 +10°C° 0.7 mm 3 mps 735 mmHg 87%
    07:00 +11°C° 0.7 mm 3 mps 734 mmHg 91%
    08:00 +12°C° 3.9 mm 2 mps 733 mmHg 93%
    09:00 +13°C° 3.9 mm 2 mps 732 mmHg 95%
    10:00 +13°C° 3.9 mm 2 mps 731 mmHg 97%
    11:00 +14°C° 0.4 mm 3 mps 730 mmHg 88%
    12:00 +15°C° 0.4 mm 4 mps 730 mmHg 80%
    13:00 +17°C° 0.4 mm 6 mps 730 mmHg 72%
    14:00 +15°C° 0.1 mm 6 mps 730 mmHg 73%
    15:00 +14°C° 0.1 mm 7 mps 731 mmHg 74%
    16:00 +12°C° 0.1 mm 8 mps 731 mmHg 75%
    17:00 +11°C° 0.1 mm 8 mps 732 mmHg 77%
    18:00 +10°C° 0.1 mm 8 mps 733 mmHg 79%
    19:00 +9°C° 0.1 mm 8 mps 734 mmHg 81%
    20:00 +7°C° 0.1 mm 8 mps 735 mmHg 82%
    21:00 +6°C° 0.1 mm 8 mps 736 mmHg 83%
    22:00 +6°C° 0.1 mm 8 mps 737 mmHg 85%
    23:00 +5°C° 0.1 mm 8 mps 737 mmHg 84%

    9 December, Friday

    Time Temperature Precipitation Wind Pressure Humidity
    00:00 +5°C° 0.1 mm 8 mps 737 mmHg 83%
    01:00 +4°C° 0.1 mm 8 mps 738 mmHg 82%
    02:00 +4°C° 0.1 mm 8 mps 738 mmHg 82%
    03:00 +2°C° 0.1 mm 8 mps 739 mmHg 82%
    04:00 +3°C° 0.1 mm 7 mps 740 mmHg 82%
    05:00 +4°C° 0.2 mm 8 mps 740 mmHg 78%
    06:00 +5°C° 0.2 mm 8 mps 741 mmHg 75%
    07:00 +6°C° 0.2 mm 9 mps 742 mmHg 71%
    08:00 +6°C° 0.2 mm 9 mps 743 mmHg 68%
    09:00 +7°C° 0.2 mm 9 mps 743 mmHg 66%
    10:00 +7°C° 0.2 mm 9 mps 744 mmHg 63%
    11:00 +8°C° 0.1 mm 9 mps 744 mmHg 61%
    12:00 +8°C° 0.1 mm 9 mps 745 mmHg 59%
    13:00 +10°C° 0.1 mm 9 mps 745 mmHg 57%
    14:00 +10°C° 0.1 mm 9 mps 746 mmHg 56%
    15:00 +10°C° 0.1 mm 9 mps 746 mmHg 55%
    16:00 +10°C° 0.1 mm 9 mps 746 mmHg 54%
    17:00 +8°C° 0 mm 9 mps 747 mmHg 58%
    18:00 +9°C° 0 mm 8 mps 748 mmHg 61%
    19:00 +7°C° 0 mm 8 mps 749 mmHg 65%
    20:00 +6°C° 0 mm 7 mps 749 mmHg 69%
    21:00 +7°C° 0 mm 6 mps 750 mmHg 73%
    22:00 +5°C° 0 mm 6 mps 750 mmHg 78%
    23:00 +6°C° 0 mm 5 mps 750 mmHg 81%

    10 December, Saturday

    Time Temperature Precipitation Wind Pressure Humidity
    00:00 +6°C° 0 mm 5 mps 750 mmHg 85%
    01:00 +6°C° 0 mm 5 mps 750 mmHg 88%
    02:00 +5°C° 0 mm 4 mps 750 mmHg 90%
    03:00 +5°C° 0 mm 4 mps 750 mmHg 91%
    04:00 +5°C° 0 mm 4 mps 750 mmHg 93%
    05:00 +7°C° 0 mm 4 mps 751 mmHg 86%
    06:00 +8°C° 0 mm 4 mps 751 mmHg 79%
    07:00 +10°C° 0 mm 4 mps 751 mmHg 72%
    08:00 +12°C° 0 mm 4 mps 751 mmHg 68%
    09:00 +13°C° 0 mm 4 mps 751 mmHg 63%
    10:00 +14°C° 0 mm 5 mps 751 mmHg 59%
    11:00 +15°C° 0 mm 5 mps 751 mmHg 58%
    12:00 +15°C° 0 mm 5 mps 750 mmHg 57%
    13:00 +16°C° 0 mm 6 mps 750 mmHg 57%
    14:00 +15°C° 0 mm 6 mps 750 mmHg 58%
    15:00 +15°C° 0 mm 6 mps 750 mmHg 59%
    16:00 +14°C° 0 mm 6 mps 749 mmHg 61%
    17:00 +13°C° 0 mm 6 mps 750 mmHg 66%
    18:00 +11°C° 0 mm 6 mps 750 mmHg 71%
    19:00 +10°C° 0 mm 6 mps 750 mmHg 76%
    20:00 +10°C° 0 mm 6 mps 750 mmHg 78%
    21:00 +9°C° 0 mm 5 mps 750 mmHg 81%
    22:00 +9°C° 0 mm 5 mps 750 mmHg 83%
    23:00 +9°C° 0 mm 5 mps 750 mmHg 85%

    11 December, Sunday

    Time Temperature Precipitation Wind Pressure Humidity
    00:00 +9°C° 0 mm 5 mps 750 mmHg 86%
    01:00 +9°C° 0 mm 5 mps 750 mmHg 88%
    02:00 +8°C° 0 mm 5 mps 750 mmHg 89%
    03:00 +8°C° 0 mm 5 mps 750 mmHg 89%
    04:00 +8°C° 0 mm 5 mps 750 mmHg 90%
    05:00 +9°C° 0 mm 5 mps 751 mmHg 86%
    06:00 +10°C° 0 mm 5 mps 751 mmHg 83%
    07:00 +10°C° 0 mm 5 mps 752 mmHg 79%
    08:00 +12°C° 0 mm 5 mps 752 mmHg 71%
    09:00 +13°C° 0 mm 5 mps 752 mmHg 64%
    10:00 +14°C° 0 mm 5 mps 752 mmHg 57%
    11:00 +15°C° 0 mm 5 mps 752 mmHg 53%
    12:00 +16°C° 0 mm 5 mps 752 mmHg 49%
    13:00 +17°C° 0 mm 5 mps 752 mmHg 45%
    14:00 +17°C° 0 mm 5 mps 752 mmHg 45%
    15:00 +17°C° 0 mm 5 mps 751 mmHg 45%
    16:00 +17°C° 0 mm 5 mps 751 mmHg 44%
    17:00 +15°C° 0 mm 5 mps 751 mmHg 52%
    18:00 +14°C° 0 mm 4 mps 752 mmHg 59%
    19:00 +12°C° 0 mm 4 mps 752 mmHg 67%
    20:00 +10°C° 0 mm 3 mps 752 mmHg 75%
    21:00 +8°C° 0 mm 2 mps 752 mmHg 82%
    22:00 +6°C° 0 mm 2 mps 752 mmHg 90%
    23:00 +6°C° 0 mm 2 mps 752 mmHg 92%
    Show more